Tracking 19792 objects as of 16-Jul-2019
HD Live streaming from Space Station
objects crossing your sky now

APSTAR 1

Track APSTAR 1 now!
APSTAR 1 is classified as:


NORAD ID: 23185
Int'l Code: 1994-043A
Perigee: 36,016.4 km
Apogee: 36,074.1 km
Inclination: 10.7 °
Period: 1,449.0 minutes
Semi major axis: 42416 km
RCS: 25.1188 m2 (large)
Launch date: July 21, 1994
Source: People's Republic of China (PRC)
Launch site: Xichang Space Center, China (XSC)

24 C-band transponders.
aabbcc
Your satellite tracking list
Your tracking list is empty




NASA's NSSDC Master Catalog

Two Line Element Set (TLE):
1 23185U 94043A   19195.83590800 -.00000193  00000-0  00000+0 0  9990
2 23185  10.7481  34.6919 0006807 338.7805  33.5305  0.99381312 91307
Source of the keplerian elements: AFSPC